Regional Weather Roundup
Issued by NWS

Home | Current Version | Previous Version | Text Only | Print | Product List | Glossary Off
Versions: 1 2 3 4 5 6 7 8 9 10 11 12 13 14 15 16 17 18 19 20 21 22 23 24 25 26 27 28 29 30 31 32 33 34 35 36 37 38 39 40 41 42 43 44 45 46 47 48 49 50

000
ASUS45 KSLC 261110
RWRUT

UTAH REGIONAL WEATHER ROUNDUP
NATIONAL WEATHER SERVICE SALT LAKE CITY UT
500 AM MDT TUE AUG 26 2014

UTZ001>011-023>025-261200-

NORTHERN UTAH

CITY           SKY/WX    TMP DP  RH WIND       PRES   REMARKS
HILL AFB       CLOUDY    57  52  82 E14       30.13F
LOGAN          CLEAR     57  55  93 N12       30.12R
OGDEN          LGT RAIN  60  53  77 NE9       30.12F
PROVO AIRPORT  MOCLDY    61  54  77 S6        30.13R
SALT LAKE CITY CLOUDY    63  49  60 NE13      30.10S
VERNAL         MOCLDY    55  53  93 CALM      30.17S
WENDOVER       CLEAR     59  41  51 NW7       30.10R
HEBER CITY     MOCLDY    55  46  71 CALM      30.17S
WEST JORDAN    MOCLDY    63  54  72 NE5       30.13R

$$

UTZ012>022-026-027-261200-

SOUTHERN UTAH

CITY           SKY/WX    TMP DP  RH WIND       PRES   REMARKS
BRYCE CANYON   MOCLDY    46  44  93 CALM      30.29R
CEDAR CITY     MOCLDY    60  45  57 S7        30.14S
MILFORD        MOCLDY    58  44  60 N7        30.11R
MOAB/CYNLANDS  PTCLDY    67  50  54 SE5       30.05S
PRICE          MOCLDY    55  49  80 N5        30.16R
ST GEORGE      PTSUNNY   75  54  46 SE9       30.00R
KANAB            N/A     57  50  77 CALM      30.16S

$$

REGIONAL REPORTS     COLORADO/ARIZONA

CITY           SKY/WX    TMP DP  RH WIND       PRES   REMARKS
CRAIG, CO      PTCLDY    52  47  83 NE5       30.22S
GRAND JUNCTION CLOUDY    62  53  72 CALM      30.10R
RIFLE          MOCLDY    54  50  86 CALM      30.18R
MONTROSE       MOCLDY    63  45  51 S6        30.20R
CORTEZ         CLEAR     52  45  77 CALM      30.21S
PAGE, AZ       CLOUDY    75  47  36 N7        30.09R
GRAND CANYON     N/A    N/A N/A N/A MISG        N/A
KINGMAN        CLOUDY    75  57  53 SW7       30.04S
FLAGSTAFF      CLOUDY    55  49  80 CALM      30.30R

$$

REGIONAL REPORTS    NEVADA/IDAHO/WYOMING

CITY           SKY/WX    TMP DP  RH WIND       PRES   REMARKS
LAS VEGAS, NV  MOCLDY    80  42  25 S13       29.87R
ELY            PTCLDY    48  41  76 S3        30.18R
ELKO           MOCLDY    51  47  86 E5        30.13S
POCATELLO, ID  PTCLDY    47  47 100 E3        30.15R
BURLEY         PTCLDY    51  47  86 SW3       30.13R
EVANSTON, WY   MOCLDY    48  45  89 NE8       30.25F
ROCK SPRINGS   MOCLDY    52  46  80 N3        30.20R

$$



USA.gov is the U.S. government's official web portal to all federal, state and local government web resources and services.